This is the latest recevied weather packets stored in our database for station/object SP2NBH-2. If no packets are shown the sender has not sent any weather packets the latest 10 day(s).
| Time | Temp. | Humidity | Pressure | Rain* | Wind** | Luminosity | Snow |
|---|---|---|---|---|---|---|---|
| 1777956586 | 13.33° C | 68% | 1013.1 hPa | - | - | - | - |
| 1777955686 | 12.22° C | 69% | 1013.1 hPa | - | - | - | - |
| 1777954786 | 12.22° C | 71% | 1013.1 hPa | - | - | - | - |
| 1777954116 | 11.67° C | 79% | 1013.1 hPa | - | - | - | - |
| 1777953886 | 11.67° C | 79% | 1013.1 hPa | - | - | - | - |
| 1777952985 | 8.89° C | 80% | 1013 hPa | - | - | - | - |
| 1777952085 | 7.78° C | 80% | 1012.9 hPa | - | - | - | - |
| 1777951218 | 7.22° C | 82% | 1013 hPa | - | - | - | - |
| 1777951185 | 7.22° C | 82% | 1013 hPa | - | - | - | - |
| 1777950322 | 7.78° C | 80% | 1012.8 hPa | - | - | - | - |
| 1777950285 | 7.78° C | 80% | 1012.8 hPa | - | - | - | - |
| 1777949385 | 7.78° C | 78% | 1013 hPa | - | - | - | - |
| 1777948518 | 7.78° C | 79% | 1013 hPa | - | - | - | - |
| 1777948484 | 7.78° C | 79% | 1013 hPa | - | - | - | - |
| 1777946782 | 7.78° C | 76% | 1013 hPa | - | - | - | - |
| 1777945882 | 7.78° C | 77% | 1013 hPa | - | - | - | - |
| 1777944982 | 8.33° C | 78% | 1013 hPa | - | - | - | - |
| 1777944116 | 8.33° C | 75% | 1012.9 hPa | - | - | - | - |
| 1777944082 | 8.33° C | 75% | 1012.9 hPa | - | - | - | - |
| 1777943182 | 8.89° C | 73% | 1012.9 hPa | - | - | - | - |
| 1777942282 | 9.44° C | 73% | 1012.9 hPa | - | - | - | - |
| 1777941414 | 10° C | 73% | 1012.9 hPa | - | - | - | - |
| 1777941382 | 10° C | 73% | 1012.9 hPa | - | - | - | - |
| 1777940514 | 10° C | 73% | 1012.9 hPa | - | - | - | - |
| 1777940482 | 10° C | 73% | 1012.9 hPa | - | - | - | - |
* Rain since midnight (hover to see other rain measurements)
** Current wind speed in m/s (hover to see current wind gust speed)